Flag for Indonesia Weather past 2 weeks in Manado, North Sulawesi, Indonesia

Now
91 °F

Scattered clouds.


Feels Like: 94 °F
Forecast: 74 / 91 °F
Wind: 8 mph from Northwest

Location: Menado / Dr. Sam Ratulangi

Current Time: Sep 3, 2015 at 1:18:42 PM

Latest Report: Sep 3, 2015 at 12:30 PM


Visibility: N/A

Pressure: 29.86 "Hg

Humidity: 44%

Dew point: 66 °F

Location of ManadoLocation

Historic Weather in Manado — Graph

°F

Manado temperature yesterday

Maximum temperature yesterday: 93 °F (at 1:00 PM)
Minimum temperature yesterday: 73 °F (at 5:00 AM)
Average temperature yesterday: 82 °F

Past Weeks' High & Low Weather Summary

 TemperatureHumidityPressure
High95 °F (Aug 25, 3:00 PM)94% (Aug 23, 5:30 AM)29.95 "Hg (Aug 23, 5:30 AM)
Low64 °F (Aug 23, 5:30 AM)34% (Aug 25, 3:00 PM)29.77 "Hg (Aug 19, 3:00 PM)
Average83 °F60%29.86 "Hg
* Reported Aug 19 12:00 Noon — Sep 3 12:00 Noon, Manado, Weather by CustomWeather, © 2015

Note: Actual official high and low records may vary slightly from our data, if they occured in-between our weather recording intervals... More about our weather records

Advertising

Manado weather history for previous 24 hours

 ConditionsComfort  
Time TempWeatherWind HumidityBarometerVisibility
12:00 PM
Thu, Sep 3
91 °FPassing clouds.5 mph46%29.89 "HgN/A
11:30 AM93 °FPassing clouds.7 mph39%29.92 "HgN/A
11:00 AM91 °FPassing clouds.7 mph46%29.89 "HgN/A
10:30 AM91 °FPassing clouds.5 mph44%29.92 "HgN/A
10:00 AM90 °FPassing clouds.6 mph43%29.92 "HgN/A
9:30 AM90 °FPassing clouds.6 mph46%29.92 "HgN/A
9:00 AM88 °FPassing clouds.6 mph49%29.92 "HgN/A
8:30 AM86 °FPassing clouds.6 mph55%29.95 "HgN/A
8:00 AM84 °FPassing clouds.5 mph58%29.92 "HgN/A
7:30 AM82 °FPassing clouds.6 mph66%29.92 "HgN/A
7:00 AM79 °FPassing clouds.7 mph74%29.92 "HgN/A
6:30 AM77 °FPassing clouds.7 mph79%29.92 "HgN/A
6:00 AM75 °FPassing clouds.6 mph83%29.92 "HgN/A
5:00 AM75 °FPassing clouds.6 mph83%29.89 "Hg6 mi
3:30 AM77 °FPassing clouds.7 mph74%29.89 "Hg6 mi
2:00 AM75 °FPassing clouds.7 mph78%29.89 "Hg6 mi
1:00 AM75 °FPassing clouds.7 mph78%29.89 "Hg6 mi
12:00 AM77 °FPassing clouds.7 mph74%29.92 "Hg6 mi
11:30 PM
Wed, Sep 2
75 °FPassing clouds.5 mph78%29.92 "Hg6 mi
11:00 PM75 °FPassing clouds.6 mph78%29.92 "Hg6 mi
10:30 PM77 °FPassing clouds.7 mph74%29.95 "Hg6 mi
10:00 PM77 °FPassing clouds.7 mph79%29.92 "Hg6 mi
9:30 PM77 °FPassing clouds.7 mph79%29.92 "Hg6 mi
9:00 PM77 °FPassing clouds.7 mph79%29.92 "Hg6 mi
8:30 PM77 °FPassing clouds.7 mph79%29.89 "Hg6 mi
8:00 PM79 °FPassing clouds.7 mph74%29.89 "Hg6 mi
7:30 PM79 °FPassing clouds.8 mph74%29.89 "Hg6 mi
7:00 PM79 °FPassing clouds.7 mph74%29.89 "Hg6 mi
6:30 PM79 °FPassing clouds.8 mph74%29.86 "Hg6 mi
6:00 PM81 °FPassing clouds.7 mph70%29.86 "HgN/A
5:30 PM82 °FPassing clouds.5 mph66%29.86 "HgN/A
5:00 PM84 °FPassing clouds.8 mph62%29.83 "HgN/A
4:30 PM86 °FScattered clouds.7 mph59%29.83 "HgN/A
4:00 PM86 °FScattered clouds.7 mph59%29.83 "HgN/A
3:30 PM88 °FScattered clouds.5 mph55%29.83 "HgN/A
3:00 PM88 °FScattered clouds.6 mph55%29.83 "HgN/A
2:30 PM90 °FScattered clouds.5 mph49%29.83 "HgN/A
2:00 PM90 °FScattered clouds.5 mph49%29.83 "HgN/A
1:30 PM91 °FScattered clouds.7 mph44%29.83 "HgN/A
1:00 PM93 °FScattered clouds.7 mph44%29.83 "HgN/A
Weather by CustomWeather, © 2015

See weather overviewHow to use our weather pages